User: anonymous   Login
Location: Starry Hill Observatory
(46.8582°N, 122.3590°W)
Time: 05:13:39
(UTC-08:00)
Language:

Cosmos 1300 Rocket - Orbit

View from above orbital plane
View from above orbital plane
View from above satellite
View from above satellite

Ground track
Ground track

The orbit data is extracted from the following two-line orbital elements,

1 12786U 81082B   14326.84327788  .00000584  00000-0  66635-4 0   477
2 12786 082.4871 130.9695 0019210 108.3315 251.9992 14.84255768795742
Epoch (UTC): 22 November 2014 20:14:19
Eccentricity: 0.0019210
inclination: 82.4871°
perigee height: 602 km
apogee height: 629 km
right ascension of ascending node: 130.9695°
argument of perigee: 108.3315°
revolutions per day: 14.84255768
mean anomaly at epoch: 251.9992°
orbit number at epoch: 79574

The dashed part of the orbit path shows where the satellite is in the earth's shadow,  

DLR